Regional Weather Roundup
Issued by NWS

Home | Current Version | Previous Version | Graphics & Text | Print | Product List | Glossary On
Versions: 1 2 3 4 5 6 7 8 9 10 11 12 13 14 15 16 17 18 19 20 21 22 23 24 25 26 27 28 29 30 31 32 33 34 35 36 37 38 39 40 41 42 43 44 45 46 47 48 49 50
000
ASUS44 KMEG 020010
RWRTN
TENNESSEE HOURLY STATE WEATHER ROUNDUP
NATIONAL WEATHER SERVICE MEMPHIS TN
700 PM CDT SUN MAY 01 2016

TNZ002-004-019-021-049-052-054-088>092-020100-
WEST TENNESSEE

CITY           SKY/WX    TMP DP  RH WIND       PRES   REMARKS
MEMPHIS INTL   PTCLDY    79  67  66 NW5       29.92S
NWS MEMPHIS      N/A     77 N/A N/A MISG        N/A
JACKSON        CLEAR     72  62  71 S7        29.94R
DYERSBURG      CLEAR     75  64  69 SW6         N/A
UNION CITY     CLEAR     73  64  73 S5        29.91R
LEXINGTON      CLEAR     75  66  73 CALM      29.93S
$$

TNZ008-025-027-028-033-062-065-066-020100-
NORTH MIDDLE TENNESSEE

CITY           SKY/WX    TMP DP  RH WIND       PRES   REMARKS
NASHVILLE      CLOUDY    73  63  70 CALM      29.95S
CLARKSVILLE    CLEAR     72  63  73 S5        29.92S
SMYRNA         CLOUDY    78  65  64 SW7       29.96S
COOKEVILLE     CLEAR     73  66  78 SW8       29.97R
CROSSVILLE     CLOUDY    75  60  59 W13G22    30.02R
$$

TNZ061-075-076-078-094-096-097-020100-
SOUTH MIDDLE TENNESSEE

CITY           SKY/WX    TMP DP  RH WIND       PRES   REMARKS
FAYETTEVILLE   MOCLDY    72  63  73 S13       29.99F
TULLAHOMA      CLEAR     70  64  83 CALM      30.02R
WINCHESTER     CLEAR     72  64  78 S5        30.01S
MCMINNVILLE    CLOUDY    75  66  73 SW7       30.01R
COLUMBIA       PTCLDY    77  75  94 S6        29.94R
SHELBYVILLE    CLEAR     73  66  78 SE3       30.00R
$$

TNZ017-018-042-046-047-020100-
NORTHEAST TENNESSEE

CITY           SKY/WX    TMP DP  RH WIND       PRES   REMARKS
TRI CITIES     CLOUDY    75  60  59 SW10      29.97R
$$

TNZ012-013-036-069-073-074-020100-
CENTRAL EAST TENNESSEE

CITY           SKY/WX    TMP DP  RH WIND       PRES   REMARKS
KNOXVILLE      CLOUDY    75  65  70 SW14      29.97R THUNDER
OAK RIDGE      CLOUDY    77  64  64 S8        29.98R
GATLINBURG     CLEAR     75  61  60 W8        29.97R
MORRISTOWN     CLEAR     75  64  69 W9G16     29.97R
$$

TNZ083-085-099-020100-
SOUTHEAST TENNESSEE

CITY           SKY/WX    TMP DP  RH WIND       PRES   REMARKS
CHATTANOOGA    CLOUDY    76  63  64 S7        30.00R THUNDER
$$

SKY/WX REPORTED AS FAIR MEANS FEW OR NO CLOUDS BELOW
12 THOUSAND FEET.




USA.gov is the U.S. government's official web portal to all federal, state and local government web resources and services.